STARLINK-30782, 58137

Orbit data source: Space-Track

STARLINK-30782, 58137 is a payload satellite owned by SpaceX/Seattle (US) in LEO that was launched on Sun, 22 Oct 2023 UTC via an FALCON 9 launch vehicle from the Air Force Eastern Test Range (AFETR). Payload-class satellites include a variety of spacecraft equipped with specific instruments for various scientific and technological missions. These include communications satellites like Starlink; space stations such as the ISS; scientific satellites like the Hubble; Earth observation satellites from companies like Planet Labs, Umbra, and HawkEye 360; GPS; miniature CubeSats for education and research; and military/defense satellites.

Loading next visibility...
Identifier
58137, 2023-162V
Orbit
LEO
Country
Flag of USUS
Related business
Manufacturer
SpaceX/Seattle
Mission
Operational Commercial Communications
Bus & Motor
STARLINK V2M, Unknown motor
Mass
730 kg wet, ~700 kg dry
Launch date (UTC)
2023-10-22 (2 years ago)
Launch vehicle
FALCON 9
Launch site
Air Force Eastern Test Range (AFETR)
Object type
Payload
Rocket body
Debris
Shape & HBR
Box + 2 Pan, 17.7 m
Radar Cross Section
33.884 m², Large (>1 m²)

Expand to show TLE details & history
Last TLE update: 21 hours ago

TLE from 21 hours ago
0 STARLINK-30782
1 58137U 23162V   25348.72320833  .00002617  00000-0  20881-3 0  9996
2 58137  43.0034 235.2076 0001471 270.8642  89.2031 15.02527428119513
Epoch: 2025-12-14T17:21Z
TLE epoch observation values (Epoch: 2025-12-14T17:21:25.199Z)
Latitude
-0.00008°
Longitude
-108.77952°
Altitude
558.87 km
Speed
7.584 km/s
True Right ascension
15h 40m 49s
True Declination
0° 00' 00"
Sunlit
Object was in daylight at epoch
Visualization orbit readout
Latitude
Unknown
Longitude
Unknown
Altitude
Unknown
Speed
Unknown
Apparent Right ascension
Unknown
Apparent Declination
Unknown
Sunlit
N/A
Visualization observer readout
Local Sidereal Time
13:19:49
Azimuth
Unknown
Elevation
Unknown
Doppler factor
Unknown
Orbital elements
Apogee altitude
562.05 km
Perigee altitude
560.009 km
Semi-major axis
6,939.166 km
Eccentricity
0.00015
Inclination
43.0034°
RAAN
235.2076°
Arg. of periapsis
270.8642°
True anomaly
89.21995°
Mean anomaly
89.2031°
Eccentric anomaly
89.21153°
Mean motion
3.75476 °/min
Orbital period
95.88 mins
BSTAR
0.00020881
Loading maneuver chart data...
Computing Atmospheric mass density...
Loading historical data...
Loading historical data...
Loading historical data...
Loading historical data...
Loading historical data...
Loading historical data...
Loading historical data...

Documentation

Showing up to 5 results
|